TimeAEST,TemperatureF,Dew PointF,Humidity,Sea Level PressureIn,VisibilityMPH,Wind Direction,Wind SpeedMPH,Gust SpeedMPH,PrecipitationIn,Events,Conditions,WindDirDegrees,DateUTC
12:00 AM,67,57,63,30.09,,SSE,9.2,,,,,150,2013-08-30 14:00:00
12:00 AM,68.0,57.2,68,30.09,6.2,SSE,9.2,-,N/A,,Partly Cloudy,150,2013-08-30 14:00:00
1:00 AM,71,58,54,30.07,,South,10.4,,,,,180,2013-08-30 15:00:00
1:00 AM,71.6,57.2,60,30.06,6.2,South,10.4,-,N/A,,Scattered Clouds,180,2013-08-30 15:00:00
1:30 AM,69.8,59.0,68,30.06,6.2,SSE,12.7,-,N/A,,Mostly Cloudy,160,2013-08-30 15:30:00
2:00 AM,69.8,60.8,73,30.06,6.2,South,12.7,-,N/A,,Mostly Cloudy,170,2013-08-30 16:00:00
2:30 AM,69.8,60.8,73,30.04,6.2,South,11.5,-,N/A,,Mostly Cloudy,180,2013-08-30 16:30:00
3:00 AM,71,61,64,30.06,,South,11.5,,,,,170,2013-08-30 17:00:00
3:00 AM,69.8,60.8,73,30.04,6.2,South,11.5,-,N/A,,Scattered Clouds,170,2013-08-30 17:00:00
3:30 AM,69.8,62.6,78,30.04,6.2,South,10.4,-,N/A,,Partly Cloudy,170,2013-08-30 17:30:00
4:00 AM,71,62,64,30.05,,South,10.4,,,,,180,2013-08-30 18:00:00
4:00 AM,69.8,60.8,73,30.04,6.2,South,10.4,-,N/A,,Partly Cloudy,180,2013-08-30 18:00:00
4:30 AM,69.8,60.8,73,30.04,6.2,South,10.4,-,N/A,,Partly Cloudy,180,2013-08-30 18:30:00
5:00 AM,69.8,60.8,73,30.04,6.2,South,10.4,-,N/A,,Scattered Clouds,170,2013-08-30 19:00:00
5:30 AM,69.8,60.8,73,30.04,6.2,South,12.7,-,N/A,,Scattered Clouds,180,2013-08-30 19:30:00
6:00 AM,71,59,58,30.07,,SSE,10.4,,,,,160,2013-08-30 20:00:00
6:00 AM,69.8,59.0,68,30.06,6.2,SSE,10.4,-,N/A,,Mostly Cloudy,160,2013-08-30 20:00:00
6:30 AM,71.6,59.0,64,30.06,6.2,SSE,10.4,-,N/A,,Scattered Clouds,160,2013-08-30 20:30:00
7:00 AM,71,59,56,30.10,,SSE,10.4,,,,,160,2013-08-30 21:00:00
7:00 AM,71.6,59.0,64,30.09,6.2,SSE,10.4,-,N/A,,Scattered Clouds,160,2013-08-30 21:00:00
7:30 AM,73.4,59.0,61,30.09,6.2,South,13.8,-,N/A,,Scattered Clouds,170,2013-08-30 21:30:00
8:00 AM,71.6,60.8,69,30.09,6.2,South,12.7,-,N/A,,Scattered Clouds,170,2013-08-30 22:00:00
8:30 AM,73.4,60.8,65,30.12,6.2,South,10.4,-,N/A,,Mostly Cloudy,170,2013-08-30 22:30:00
9:00 AM,77,61,48,30.12,19,SSE,13.8,,,,Partly Cloudy,160,2013-08-30 23:00:00
9:00 AM,77.0,60.8,57,30.12,6.2,SSE,13.8,-,N/A,,Scattered Clouds,160,2013-08-30 23:00:00
10:00 AM,79,60,41,30.13,,SE,18.4,,,,,130,2013-08-31 00:00:00
10:00 AM,78.8,59.0,51,30.12,6.2,SE,18.4,-,N/A,,Scattered Clouds,130,2013-08-31 00:00:00
10:30 AM,82.4,59.0,45,30.09,6.2,SE,16.1,-,N/A,,Partly Cloudy,140,2013-08-31 00:30:00
11:00 AM,82.4,60.8,48,30.09,6.2,SE,17.3,-,N/A,,Partly Cloudy,140,2013-08-31 01:00:00
11:30 AM,84.2,57.2,40,30.09,6.2,SE,18.4,-,N/A,,Unknown,130,2013-08-31 01:30:00
12:00 PM,82.4,60.8,48,30.06,6.2,SE,18.4,-,N/A,,Partly Cloudy,140,2013-08-31 02:00:00
12:30 PM,82.4,60.8,48,30.06,6.2,SE,18.4,-,N/A,,Partly Cloudy,130,2013-08-31 02:30:00
1:00 PM,83,57,31,30.06,,SE,18.4,,,,,130,2013-08-31 03:00:00
1:00 PM,82.4,57.2,42,30.04,6.2,SE,18.4,-,N/A,,Partly Cloudy,130,2013-08-31 03:00:00
1:30 PM,82.4,59.0,45,30.04,6.2,SE,18.4,-,N/A,,Partly Cloudy,130,2013-08-31 03:30:00
2:00 PM,82.4,59.0,45,30.04,6.2,SE,19.6,-,N/A,,Partly Cloudy,140,2013-08-31 04:00:00
2:30 PM,82.4,60.8,48,30.01,6.2,SE,19.6,-,N/A,,Partly Cloudy,130,2013-08-31 04:30:00
3:00 PM,82,61,38,30.02,19,SE,18.4,,,,Partly Cloudy,130,2013-08-31 05:00:00
3:00 PM,82.4,60.8,48,30.01,6.2,SE,18.4,-,N/A,,Partly Cloudy,130,2013-08-31 05:00:00
3:30 PM,80.6,59.0,48,30.01,6.2,SE,19.6,-,N/A,,Partly Cloudy,130,2013-08-31 05:30:00
4:00 PM,80.6,60.8,51,30.01,6.2,ESE,19.6,-,N/A,,Partly Cloudy,120,2013-08-31 06:00:00
4:30 PM,78.8,60.8,54,30.01,6.2,SE,19.6,-,N/A,,Partly Cloudy,130,2013-08-31 06:30:00
5:00 PM,77.0,60.8,57,30.04,-9999.0,SE,18.4,-,N/A,,Unknown,130,2013-08-31 07:00:00
5:30 PM,75.2,60.8,61,30.04,6.2,SE,19.6,-,N/A,,Partly Cloudy,130,2013-08-31 07:30:00
6:00 PM,74,60,53,30.04,,SE,17.3,,,,,140,2013-08-31 08:00:00
6:00 PM,75.2,60.8,61,30.04,6.2,SE,17.3,-,N/A,,Partly Cloudy,140,2013-08-31 08:00:00
6:30 PM,73.4,60.8,65,30.04,6.2,SE,18.4,-,N/A,,Partly Cloudy,140,2013-08-31 08:30:00
7:00 PM,73,61,58,30.08,,SSE,16.1,,,,,150,2013-08-31 09:00:00
7:00 PM,73.4,60.8,65,30.06,6.2,SSE,16.1,-,N/A,,Partly Cloudy,150,2013-08-31 09:00:00
7:30 PM,73.4,60.8,65,30.06,6.2,SSE,12.7,-,N/A,,Partly Cloudy,150,2013-08-31 09:30:00
8:00 PM,73.4,60.8,65,30.09,-9999.0,SSE,11.5,-,N/A,,Clear,160,2013-08-31 10:00:00
8:30 PM,71.6,62.6,73,30.09,6.2,South,11.5,-,N/A,,Partly Cloudy,170,2013-08-31 10:30:00
9:00 PM,71,62,67,30.12,,South,10.4,,,,,170,2013-08-31 11:00:00
9:00 PM,71.6,62.6,73,30.09,6.2,South,10.4,-,N/A,,Partly Cloudy,170,2013-08-31 11:00:00
10:00 PM,71,62,67,30.13,,South,9.2,,,,,170,2013-08-31 12:00:00
10:00 PM,71.6,62.6,73,30.12,6.2,South,9.2,-,N/A,,Partly Cloudy,170,2013-08-31 12:00:00
11:00 PM,71.6,60.8,69,30.09,6.2,South,10.4,-,N/A,,Partly Cloudy,180,2013-08-31 13:00:00
11:30 PM,71.6,60.8,69,30.09,6.2,South,10.4,-,N/A,,Partly Cloudy,170,2013-08-31 13:30:00